Regional Weather Roundup
Issued by NWS Burlington, VT

Home | Current Version | Previous Version | Text Only | Print | Product List | Glossary On
Versions: 1 2 3 4 5 6 7 8 9 10 11 12 13 14 15 16 17 18 19 20 21 22 23 24 25 26 27 28 29 30 31 32 33 34 35 36 37 38 39 40 41 42 43 44 45 46 47 48 49 50
000
ASUS41 KBTV 300930
RWRBTV
VERMONT REGIONAL WEATHER ROUNDUP
NATIONAL WEATHER SERVICE BURLINGTON VT
500 AM EDT MON MAR 30 2015

NOTE: "FAIR" INDICATES FEW OR NO CLOUDS BELOW 12,000 FEET WITH NO
SIGNIFICANT WEATHER AND/OR OBSTRUCTIONS TO VISIBILITY.

* THESE REPORTS ARE NOT UNDER NWS QUALITY CONTROL AND/OR DO NOT
  REPORT WEATHER SUCH AS PRECIPITATION AND FOG.

VTZ001>019-301000-
_____VERMONT_____


CITY           SKY/WX    TMP DP  RH WIND       PRES   REMARKS
BURLINGTON     CLOUDY    37   7  28 S15G28    29.76F
MONTPELIER     CLOUDY    30  11  45 S8        29.82F
MORRISVILLE    CLOUDY    31  17  56 CALM      29.78F
ST. JOHNSBURY*   N/A     31  10  41 MISG      29.79F
LYNDONVILLE*   CLOUDY    29   9  42 SE8       29.79F
MIDDLEBURY*    CLOUDY    36   8  31 S13G18    29.78F
RUTLAND*       CLOUDY    30  12  47 SE6       29.81F
SPRINGFIELD    CLOUDY    26  18  71 W3        29.87F
HIGHGATE*      CLOUDY    36  10  33 S10G20    29.72F
NEWPORT*       CLOUDY    29  12  47 S5        29.75F
BENNINGTON     CLOUDY    37   9  31 SW12G17   29.84F
SUTTON*          N/A     27 N/A N/A MISG        N/A
GALLUP MILLS*    N/A     19 N/A N/A MISG        N/A
MT. MANSFIELD*   N/A     23 N/A N/A CALM        N/A

_____LAKE CHAMPLAIN_____


CITY           SKY/WX    TMP DP  RH WIND       PRES   REMARKS
BURTON ISLAND*   N/A     34  19  55 S17         N/A
COLCHESTER RF*   N/A     32  23  69 SW23        N/A
DIAMOND ISL*     N/A     34  16  47 S16         N/A

$$

NYZ007-026>031-035-052-083-301000-
_____NORTHERN NEW YORK_____


CITY           SKY/WX    TMP DP  RH WIND       PRES   REMARKS
PLATTSBURGH    CLOUDY    33  13  43 S7        29.75F
SARANAC LAKE   LGT SNOW  28  23  81 S12       29.64F WCI  18
MASSENA        CLOUDY    35  23  61 S13       29.66F
OGDENSBURG*    LGT SNOW  36  28  75 S10G20    29.61F
POTSDAM*       FLURRIES  36  28  75 S16G24    29.63F
STARK FALLS*     N/A     30 N/A N/A S15         N/A  WCI  19
WATERTOWN      CLOUDY    38  27  64 S13G26    29.64F
FT DRUM        MIX PCPN  32  27  80 S20       29.62F
ALBANY         CLOUDY    36  12  37 S8        29.87F
GLENS FALLS    CLOUDY    34  13  41 SW12      29.84F

$$
NHZ002-005-011-301000-
_____NEW HAMPSHIRE_____


CITY           SKY/WX    TMP DP  RH WIND       PRES   REMARKS
LEBANON        CLOUDY    29  19  66 CALM      29.84F
KEENE          CLOUDY    28  18  64 SW7       29.89F
MT WASHINGTON  CLOUDY    16  -9  32 W52         N/A  WCI  -9
PLYMOUTH       PTSUNNY   24  22  91 CALM      29.88S
WHITEFIELD     CLOUDY    22  16  78 CALM      29.79F

$$

_____REGIONAL QUEBEC LOCATIONS_____


CITY           SKY/WX    TMP DP  RH WIND       PRES   REMARKS
MONTREAL       FLURRIES  36  21  55 S13       29.67F
QUEBEC CITY    PTSUNNY   27  16  63 NE5       29.73F
SHERBROOKE     CLOUDY    30  10  43 SE6       29.74F

_____REGIONAL ONTARIO LOCATIONS_____


CITY           SKY/WX    TMP DP  RH WIND       PRES   REMARKS
OTTAWA         FLURRIES  32  28  86 S14G24    29.59F

______KEY______
VSB  - VISIBILITY IN MILES
WCI  - WIND CHILL INDEX
HX   - HEAT INDEX
$$



USA.gov is the U.S. government's official web portal to all federal, state and local government web resources and services.